Current Version              Previous Version:    01  02  03  04  05  06  07  08  09  10  11  12  13  14  15  16  17  18  19  20  21  22  23  24  25  26  27  28  29  30  
   31  32  33  34  35  36  37  38  39  40  41  42  43  44  45  46  47  48  49  50  51  52  53  54  55  56  57  58  59  60  

[Printable]
373
ASUS44 KFWD 210515
RWRTX
NORTH TEXAS HOURLY WEATHER ROUNDUP
NATIONAL WEATHER SERVICE FORT WORTH TX
1200 AM CDT TUE OCT 21 2014

NOTE: "FAIR" INDICATES FEW OR NO CLOUDS BELOW 12,000 FEET WITH NO
SIGNIFICANT WEATHER AND/OR OBSTRUCTIONS TO VISIBILITY.

TXZ118-119-210600-
DALLAS/FORT WORTH METROPLEX

CITY           SKY/WX    TMP DP  RH WIND       PRES   REMARKS
DFW AIRPORT    PTCLDY    67  59  75 SE3       30.04F
DALLAS LOVE    PTCLDY    69  58  67 SE5       30.05S
FTW MEACHAM    CLEAR     68  59  73 S3        30.05S
DAL-EXECUTIVE  CLEAR     65  59  81 S5        30.05S
FTW-ALLIANCE   PTCLDY    66  59  78 S3        30.05S
FTW-NAS-JRB    CLEAR     71  56  58 CALM      30.09F
FTW-SPINKS     CLEAR     65  58  79 CALM      30.07S
ARLINGTON      CLEAR     64  57  78 CALM      30.05F
GRAND PRAIRIE  CLEAR     68  60  76 CALM      30.07S
ADDISON        CLEAR     70  61  73 SE9       30.07R
MESQUITE       CLEAR     63  58  82 SE5       30.06S
LANCASTER      CLEAR     62  57  83 CALM      30.06S
$$

TXZ091>094-102>105-117-120-121-131>134-210600-
NORTH CENTRAL TEXAS

CITY           SKY/WX    TMP DP  RH WIND       PRES   REMARKS
SHRMAN/DENISON CLEAR     68  62  81 S7        30.06S
GAINESVILLE    CLEAR     65  60  81 MISG      30.07S
BOWIE          CLEAR     63  59  87 CALM      30.06S
BRIDGEPORT     CLEAR     68  59  72 S8        30.07S
DECATUR        CLEAR     68  58  70 S8        30.06S
DENTON         CLEAR     64  59  83 S3        30.05S
MCKINNEY       CLEAR     64  61  90 CALM      30.05S
GREENVILLE     CLEAR     61  57  88 CALM      30.05F
ROCKWALL       CLEAR     65  58  77 S6        30.05R
TERRELL        CLEAR     63  58  83 CALM      30.06S
WAXAHACHIE     CLEAR     63  59  87 CALM      30.07S
CLEBURNE       CLEAR     64  61  88 S3        30.08S
GRANBURY       CLEAR     67  58  72 CALM      30.07S
$$

TXZ083>090-098>101-113>116-127>130-139>142-154-155-210600-
WESTERN NORTH TEXAS

CITY           SKY/WX    TMP DP  RH WIND       PRES   REMARKS
WICHITA FALLS  CLEAR     65  58  78 S9        30.04S
WF-KICKAPOO    CLEAR     64  58  79 S5        30.06S
VERNON         CLEAR     66  55  68 S7        30.05S
ABILENE        PTCLDY    63  53  70 S6        30.07F
ABILENE-DYESS  PTCLDY    63  53  70 S6        30.06F
BRECKENRIDGE   CLEAR     68  56  64 SE8       30.06S HAZE
GRAHAM         CLEAR     67  58  73 SE5       30.04S
MINERAL WELLS  CLEAR     65  57  75 SE8       30.05S
STEPHENVILLE   PTCLDY    63  56  77 CALM      30.09S
COMANCHE       PTCLDY    64  58  82 S5        30.07S
BROWNWOOD      PTCLDY    61  57  88 CALM      30.07S
COLEMAN        PTCLDY    66  57  74 S3        30.08S
BRADY          CLEAR     63  54  72 E3        30.07S
$$

TXZ143>147-156>162-174-175-210600-
CENTRAL TEXAS

CITY           SKY/WX    TMP DP  RH WIND       PRES   REMARKS
WACO           CLEAR     60  58  92 CALM      30.05F
WACO-MCGREGOR  PTCLDY    64  54  68 CALM      30.06F
HILLSBORO      PTCLDY    65  56  74 CALM      30.06S
CORSICANA      PTCLDY    65  58  78 S5        30.07S
MEXIA          PTCLDY    63  59  89 CALM      30.05S
HEARNE         PTCLDY    66  60  81 CALM      30.05S
CAMERON        PTCLDY    65  61  86 E3        30.04S
TEMPLE         PTCLDY    64  55  72 E5        30.04F
KILLEEN        PTCLDY    66  57  72 SE6       30.05F
KILLEEN-SKYLRK CLEAR     63  54  72 CALM      30.04S
FORT HOOD      CLEAR     67  59  75 CALM      30.05F
GATESVILLE     PTCLDY    64  57  77 CALM      30.08S
HAMILTON       PTCLDY    64  57  79 MISG      30.07S
LAMPASAS       CLEAR     60  57  89 CALM      30.05F
$$

TXZ095>097-106>112-122>126-135>138-148>153-164>167-210600-
EAST TEXAS

CITY           SKY/WX    TMP DP  RH WIND       PRES   REMARKS
PARIS          CLEAR     64  54  68 CALM      30.06S
SULPHUR SPRNGS   N/A     65  57  77 CALM      30.07S
MOUNT PLEASANT CLEAR     60  59  99 CALM      30.07S
MINEOLA        CLEAR     57  57 100 CALM      30.06F FOG
TYLER          CLEAR     64  55  72 CALM      30.05F
LONGVIEW       CLEAR     59  56  89 CALM      30.05S
MARSHALL       CLEAR     58  56  91 CALM      30.07F
ATHENS         CLEAR     55  55 100 CALM      30.05S
PALESTINE      CLEAR     59  58  96 CALM      30.06F
JACKSONVILLE   CLEAR     64  53  67 CALM      30.08S
HENDERSON      CLEAR     56  56  98 CALM      30.07S
NACOGDOCHES    CLEAR     54  52  94 CALM      30.06S
LUFKIN         CLEAR     58  53  84 CALM      30.04F
$$

SUPPLEMENTAL OBSERVATIONS (CENTRAL)

CITY           SKY/WX    TMP DP  RH WIND       PRES   REMARKS
LAKE TEXOMA      N/A     66  61  82 CALM        N/A
CADDO GRASSLND   N/A     63  57  82 S1          N/A
PAT MAYSE LAKE   N/A     64  59  82 SE3         N/A
GREENVILLE       N/A     64  57  77 S3          N/A
CEDAR HILL       N/A     64  55  72 SW2         N/A
PALESTINE        N/A     57  55  94 CALM        N/A
LAKE LIMESTONE   N/A     63  59  88 E1          N/A
MCGREGOR         N/A     64  57  77 E2          N/A
TEMPLE           N/A     66  59  77 E5          N/A
$$

SUPPLEMENTAL OBSERVATIONS (WEST)

CITY           SKY/WX    TMP DP  RH WIND       PRES   REMARKS
MILLERS CREEK    N/A     66  54  63 S8          N/A
POSSUM KINGDOM   N/A     66  54  63 SE1         N/A
LBJ GRASSLAND    N/A     68  57  68 SE6         N/A
GRANBURY         N/A     66  57  72 SE3         N/A
HAMBY            N/A     64  54  68 SE3         N/A
IVIE RESERVOIR   N/A     63  52  67 E5          N/A
COLORADO BEND    N/A     64  55  72 S3          N/A
$$

SUPPLEMENTAL OBSERVATIONS (EAST)

CITY           SKY/WX    TMP DP  RH WIND       PRES   REMARKS
CLARKSVILLE      N/A     61  57  88 CALM        N/A
TEXARKANA        N/A     54  50  87 CALM        N/A
LINDEN           N/A     57  54  88 CALM        N/A
CADDO LAKE       N/A     54  52  94 CALM        N/A
GILMER           N/A     57  54  88 CALM        N/A
HENDERSON        N/A     55  52  88 CALM        N/A
LUFKIN           N/A     55  52  88 MISG        N/A
N SABINE NF      N/A     54  50  87 MISG        N/A
$$

SUPPLEMENTAL OBSERVATIONS ARE A COLLECTION OF AUTOMATED INSTRUMENTS
THAT ARE MAINTAINED BY A VARIETY OF FEDERAL AND STATE AGENCIES.
CERTAIN ELEMENTS...SUCH AS HUMIDITY VALUES AND SUSTAINED WIND
SPEEDS...MAY BE APPROXIMATED.